Search :
Type the text to search here
and press Enter.
This will search in all fields
of the database.

Click on Search : to go to the advanced search page.
Mkt: Check this box if you want
to search in classified
instead of the database.

Z Scale Model Trains Database

Engines, Rolling Stock, Structures, and Accessories

Noch Sample Layout

Z-Scale Model Trains

Z-Scale is a dimensional relationships of 1/220. All share in common a railroad gauge of 6.5mm (0.256 in). Z-Scale Train Modeling is a hobby concerned with the recreation, display and operation of railway equipment in miniature. Z-Scale is sometimes also referred to as Z-Gauge. Z scale (1:220) was introduced by the Märklin company in 1972, and is one of the smallest commercially available model railway scales.

Z scale trains operate on 0-10 volts direct current and offer the same operating characteristics as all other two-rail, direct-current, analog model railways. Locomotives can be fitted with digital decoders for independent control. Model trains, track, structures, and human/animal figures are readily available in European, North American, and Japanese styles from a variety of manufacturers. Originally running on 8 Volts DC, track voltage was increased to 10 Volts DC around the year 2000. Accessory power has always been 10 Volts AC.

Body Style:
Brand:
Manufacturer:
Road or Company Name:
Series Name:
Model Type:
Total items in collection: 1944. Total items on page 89

First Image Brand Stock Number Road or Company Name Reporting Marks Road or Reporting Number Prototype Original Retail Price Market Release Date ID
Micro-Trains 14402 Santa Fe ATSF 100938 Tank Car, Single Dome, 39 Foot 2001-04-01 159885
Micro-Trains 14402 Santa Fe ATSF 100938 Tank Car, Single Dome, 39 Foot $14.40 2001-04-01 144413
Micro-Trains 14402 Santa Fe ATSF 100943 Tank Car, Single Dome, 39 Foot $11.40 1987-07-01 144411
Micro-Trains 14402 Santa Fe ATSF 100945 Tank Car, Single Dome, 39 Foot $13.20 1998-05-01 144412
Micro-Trains 14403 Union Tank Car UTLX 73355 Tank Car, Single Dome, 39 Foot 2001-02-01 159877
Micro-Trains 14404 General American Refrigerator GATX 18201 Tank Car, Single Dome, 39 Foot 2003-10-01 159976
Micro-Trains 14405 Union Pacific UP 70117 Tank Car, Single Dome, 39 Foot $11.40 1985-03-01 144457
Micro-Trains 14405 Union Pacific UP 70125 Tank Car, Single Dome, 39 Foot $11.40 1990-06-01 144458
Micro-Trains 14405 Union Pacific UP 70133 Tank Car, Single Dome, 39 Foot $13.20 1996-05-01 144459
Micro-Trains 14405 Union Pacific UP 70136 Tank Car, Single Dome, 39 Foot $13.20 1997-07-01 144460
Micro-Trains 14406 Baltimore & Ohio X 417 Tank Car, Single Dome, 39 Foot 2003-04-01 159965
Micro-Trains 14408 Southern Pacific SP 60175 Tank Car, Single Dome, 39 Foot 2001-05-01 159897
Micro-Trains 14410 Mobil Oil MOBX 11125 Tank Car, Single Dome, 39 Foot 2003-02-01 159961
Micro-Trains 14411 Chicago Great Western CGW 267 Tank Car, Single Dome, 39 Foot $15.15 1994-03-01 144414
Micro-Trains 14414 Union Pacific UP 908726 Tank Car, Single Dome, 39 Foot $13.20 H:$12.99 2003-08-01 144055
Micro-Trains 14414 Union Pacific UP 908726 Tank Car, Single Dome, 39 Foot 2003-08-01 159974
Micro-Trains 14414 Union Pacific UP 908728 Tank Car, Single Dome, 39 Foot $13.20 1994-04-01 144054
Micro-Trains 14417 Great Northern GN X 1155 Tank Car, Single Dome, 39 Foot 2002-05-01 159916
Micro-Trains 14420 Canadian Pacific CP 389593 Tank Car, Single Dome, 39 Foot 2004-10-01 160009
Micro-Trains 14422 Western Pacific 1124 Tank Car, Single Dome, 39 Foot 2002-07-01 159918
Micro-Trains 530 00 041 GATX Corporation GATX 19283 Tank Car, Single Dome, 39 Foot 2008-04-01 160346
Micro-Trains 530 00 042 GATX Corporation GATX 19291 Tank Car, Single Dome, 39 Foot 2008-04-01 160347
Micro-Trains 530 00 050 Union Pacific UP 70138 Tank Car, Single Dome, 39 Foot $18.65 2006-11-01 144456
Micro-Trains 530 00 050 Union Pacific UP 70138 Tank Car, Single Dome, 39 Foot 2006-11-01 160219
Micro-Trains 530 00 061 Baltimore & Ohio B&O X418 Tank Car, Single Dome, 39 Foot $24.50 2019-08-01 163337
Micro-Trains 530 00 062 Baltimore & Ohio B&O X419 Tank Car, Single Dome, 39 Foot $24.50 2019-08-01 163338
Micro-Trains 530 00 070 Burlington Route CB&Q 232076 Tank Car, Single Dome, 39 Foot 2005-01-01 160048
Micro-Trains 530 00 081 Southern Pacific SP 60166 Tank Car, Single Dome, 39 Foot 2013-09-01 162548
Micro-Trains 530 00 082 Southern Pacific SP 60190 Tank Car, Single Dome, 39 Foot 2013-09-01 162549
Micro-Trains 530 00 120 Milwaukee Road MILW 908318 Tank Car, Single Dome, 39 Foot 2006-05-01 160190
Micro-Trains 530 00 120 Milwaukee Road MILW 908318 Tank Car, Single Dome, 39 Foot $17.10 2006-05-01 144081
Micro-Trains 530 00 210 Montana Rail Link MRL 100015 Tank Car, Single Dome, 39 Foot 2005-07-01 160076
Micro-Trains 530 00 221 Delaware & Hudson D&H 56 Tank Car, Single Dome, 39 Foot 2008-03-01 160340
Micro-Trains 530 00 222 Delaware & Hudson D&H 57 Tank Car, Single Dome, 39 Foot 2008-03-01 160341
Micro-Trains 530 00 231 Pittsburgh & Lake Erie P&LE X103000 Tank Car, Single Dome, 39 Foot 2008-11-01 160410
Micro-Trains 530 00 232 Pittsburgh & Lake Erie P&LE X103001 Tank Car, Single Dome, 39 Foot 2008-11-01 160411
Micro-Trains 530 00 251 Standard Oil Company AMOX 9756 Tank Car, Single Dome, 39 Foot $21.80 2009-04-01 160530
Micro-Trains 530 00 251 Amoco Oil AMOX 9756 Tank Car, Single Dome, 39 Foot $21.80 2009-04-01 157881
Micro-Trains 530 00 252 Standard Oil Company AMOX 9758 Tank Car, Single Dome, 39 Foot $21.80 2009-04-01 160531
Micro-Trains 530 00 252 Amoco Oil AMOX 9758 Tank Car, Single Dome, 39 Foot $21.80 2009-04-01 157882
Micro-Trains 530 00 271 Koppers KPCX 2105 Tank Car, Single Dome, 39 Foot $22.60 2009-08-01 160682
Micro-Trains 530 00 272 Koppers KPCX 2129 Tank Car, Single Dome, 39 Foot $22.60 2009-08-01 160683
Micro-Trains 530 00 281 United States Army USAX 10936 Tank Car, Single Dome, 39 Foot $20.20 2009-12-01 160782
Micro-Trains 530 00 282 United States Army USAX 10986 Tank Car, Single Dome, 39 Foot $20.20 2009-12-01 160783
Micro-Trains 530 00 291 Sunoco UTLX 53164 Tank Car, Single Dome, 39 Foot 2010-04-01 161074
Micro-Trains 530 00 292 Sunoco UTLX 53166 Tank Car, Single Dome, 39 Foot 2010-04-01 161075
Micro-Trains 530 00 310 Company DR&URR 1950 Tank Car, Single Dome, 39 Foot E:$24.95 2011-08-01 161610
Micro-Trains 530 00 320 Colorado Transportation CTTX 8401 Tank Car, Single Dome, 39 Foot 2012-10-01 162273
Micro-Trains 530 00 350 Canadian Pacific CP 389940 Tank Car, Single Dome, 39 Foot 2013-05-01 162454
Micro-Trains 530 00 360 Chicago Great Western CGW 264 Tank Car, Single Dome, 39 Foot 2014-05-01 162835
Micro-Trains 530 00 370 Chicago Great Western CGW 290 Tank Car, Single Dome, 39 Foot 2014-05-01 162836
Micro-Trains 530 00 380 Curtiss-Wright NATX 375 Tank Car, Single Dome, 39 Foot 2015-10-01 163852
Micro-Trains 530 00 391 Union Pacific UP 69657 Tank Car, Single Dome, 39 Foot $24.50 2019-08-01 163335
Micro-Trains 530 00 392 Union Pacific UP 69663 Tank Car, Single Dome, 39 Foot $24.50 2019-08-01 163336
Micro-Trains 530 00 401 Cities Service Oil Company CSRX 1449 Tank Car, Single Dome, 39 Foot 2014-07-01 162865
Micro-Trains 530 00 402 Shell Oil SEPX 16 Tank Car, Single Dome, 39 Foot 2014-08-01 162876
Micro-Trains 530 00 403 Kanotex Refining KOTX 503 Tank Car, Single Dome, 39 Foot 2014-09-01 162883
Micro-Trains 530 00 403 Kanotex Refining KOTX 503 Tank Car, Single Dome, 39 Foot $23.95 2014-09-01 154445
Micro-Trains 530 00 404 Union Pacific UOCX 10390 Tank Car, Single Dome, 39 Foot 2014-10-01 162896
Micro-Trains 530 00 405 Mid Continent Petroleum COSX 2954 Tank Car, Single Dome, 39 Foot 2014-11-01 162911
Micro-Trains 530 00 406 Gulf GRCX 5010 Tank Car, Single Dome, 39 Foot 2014-12-01 162921
Micro-Trains 530 00 407 White Eagle Petroleum WEPX 627 Tank Car, Single Dome, 39 Foot 2015-01-01 162932
Micro-Trains 530 00 408 Pan-Am Oils SHPX 4133 Tank Car, Single Dome, 39 Foot 2015-02-01 162937
Micro-Trains 530 00 408 Pan-Am Oils SHPX 4133 Tank Car, Single Dome, 39 Foot $23.95 2015-02-01 157884
Micro-Trains 530 00 409 Mexican Petroleum Corp. Tank Car, Single Dome, 39 Foot 2015-03-01 163030
Micro-Trains 530 00 410 Sinclair SDRX 3611 Tank Car, Single Dome, 39 Foot 2015-04-01 163052
Micro-Trains 530 00 411 Texaco TCX 9919 Tank Car, Single Dome, 39 Foot 2015-05-01 163060
Micro-Trains 530 00 412 Kansas Oil Refining KORX 820 Tank Car, Single Dome, 39 Foot 2015-06-01 163196
Micro-Trains 530 00 412 Kansas Oil Refining KORX 820 Tank Car, Single Dome, 39 Foot $23.95 2015-06-01 157885
Micro-Trains 530 00 431 Milwaukee Road MILW 908310 Tank Car, Single Dome, 39 Foot 2016-01-01 163888
Micro-Trains 530 00 432 Milwaukee Road MILW 908318 Tank Car, Single Dome, 39 Foot 2016-01-01 163889
Micro-Trains 530 00 451 Spokane Portland & Seattle SP&S 38017 Tank Car, Single Dome, 39 Foot 2016-05-01 164176
Micro-Trains 530 00 452 Spokane Portland & Seattle SP&S 38024 Tank Car, Single Dome, 39 Foot 2016-05-01 164177
Micro-Trains 530 00 471 Rio Grande D&RGW X-2905 Tank Car, Single Dome, 39 Foot $23.50 2017-02-01 154510
Micro-Trains 530 00 472 Rio Grande D&RGW X-2906 Tank Car, Single Dome, 39 Foot $23.50 2017-02-01 154511
Micro-Trains 530 44 280 United States Army USAX 10986 Tank Car, Single Dome, 39 Foot 2011-12-01 161889
Micro-Trains 530 44 300 Texaco TCX 8268 Tank Car, Single Dome, 39 Foot 144082
Micro-Trains 530 44 300 Texaco TCX 8268 Tank Car, Single Dome, 39 Foot 2011-05-01 161402
Micro-Trains 994 00 005 Pennsylvania 4-pack Tank Car, Single Dome, 39 Foot 2009-05-01 160555
Micro-Trains 994 00 010 Shell Oil SCCX 4-Pack Tank Car, Single Dome, 39 Foot 2009-10-01 160763
Micro-Trains 994 00 021 Texaco TCX 4-Pack Tank Car, Single Dome, 39 Foot 2010-09-01 161229
Micro-Trains 994 00 028 Mobil Oil MOBX 4-Pack Tank Car, Single Dome, 39 Foot 2011-04-01 161396
Micro-Trains 994 00 031 Santa Fe ATSF 4-Pack Tank Car, Single Dome, 39 Foot 2011-07-01 161605
Micro-Trains 994 00 038 Union Pacific UP 4-Pack Tank Car, Single Dome, 39 Foot 2012-02-01 161908
Micro-Trains 994 00 053 Shipper's Car Line SHPX 4-Pack Tank Car, Single Dome, 39 Foot 2013-05-01 162457
Micro-Trains 994 00 083 Shell Oil SCCX 4-Pack Tank Car, Single Dome, 39 Foot 2015-09-01 163841
Micro-Trains 994 00 803 Union Tank Car UTLX 8-Pack Tank Car, Single Dome, 39 Foot 2013-09-01 162553
Micro-Trains 994 00 810 North American Tank Line NATX 8-Pack Tank Car, Single Dome, 39 Foot 2016-05-01 164179
Micro-Trains 994 01 080 Santa Fe ATSF 100942 Tank Car, Single Dome, 39 Foot 2012-11-01 162327